Hourly Data Report for October 25, 2000

SHERBROOKE A
QUEBEC

45°26'00.000" N
71°41'00.000" W
241.40 m
7028124
71610
YSC

Download Data

Hourly Data (October 2000)
Hourly Data Report for October 25, 2000
TIME
LST
Temp Definition
°C
Dew Point Definition
°C
Rel Hum Definition
%
Precip. Amount Definition
mm

Wind Dir Definition
10's deg

Wind Spd Definition
km/h
Visibility Definition
km
Stn Press Definition
kPa
Hmdx Definition


Wind Chill Definition


Weather Definition


00:00 5.3 5.3 100   23 6 0.6 99.48      
01:00 3.4 3.3 99   22 4 0.2 99.51      
02:00 1.1 1.0 99   10 4 0.3 99.55      
03:00 1.5 1.4 99     0 0.2 99.58      
04:00 2.8 2.8 100   13 4 0.0 99.58      
05:00 3.1 3.1 100     0 0.0 99.61      
06:00 3.1 3.1 100     0 0.0 99.68      
07:00 3.8 3.8 100   12 4 0.2 99.74     Fog
08:00 4.9 4.9 100   29 4 0.2 99.78     Fog
09:00 6.5 6.5 100     0 0.2 99.84     Fog
10:00 7.6 7.6 100     0 4.8 99.81     Fog
11:00 9.6 8.5 93     0 19.3 99.78     Mostly Cloudy
12:00 11.4 5.7 68     0 24.1 99.71     Mainly Clear
13:00 14.8 5.6 54   26 7 24.1 99.65     Mainly Clear
14:00 15.6 6.6 55   26 6 24.1 99.58     Mainly Clear
15:00 16.1 6.9 54   23 7 24.1 99.51     Mainly Clear
16:00 15.1 6.1 55   21 4 24.1 99.51     Mainly Clear
17:00 9.7 6.0 78   16 6 15.0 99.48      
18:00 8.1 6.5 90   1 6 15.0 99.55      
19:00 6.3 5.4 94   11 6 15.0 99.55      
20:00 5.7 4.7 93     0 15.0 99.51      
21:00 4.3 3.7 96   6 4 9.7 99.51      
22:00 3.4 2.9 97   3 4 6.4 99.51      
23:00 2.0 1.4 96   11 6 8.0 99.48      

Notes on Data Quality.

Legend

  • E = Estimated
  • M = Missing
  • NA = Not Available*
  • [empty] = Indicates an unobserved value
Date modified: